Tracking 27382 objects as of 4-Jun-2023
HD Live streaming from Space Station
objects crossing your sky now

STARLINK-6077

Track STARLINK-6077 now!
10-day predictions
STARLINK-6077 is classified as:


NORAD ID: 56097
Int'l Code: 2023-046E
Perigee: 361.0 km
Apogee: 363.2 km
Inclination: 43.0 °
Period: 91.6 minutes
Semi major axis: 6733 km
RCS: Unknown
Launch date: March 29, 2023
Source: United States (US)
Launch site: AIR FORCE EASTERN TEST RANGE (AFETR)
Your satellite tracking list
Your tracking list is empty




NASA's NSSDC Master Catalog

Two Line Element Set (TLE):
1 56097U 23046E   23155.51063907  .00008228  00000-0  66063-4 0  9994
2 56097  42.9995 220.8351 0001602 292.7271  67.3428 15.71379830 10507
Source of the keplerian elements: AFSPC